Voltar ao catálogo

STARLINK-38151

AtivoComunicaçõesSSO
NORAD 100168·PAYLOAD·🇺🇸 United States

Lançado Jul 25, 2026 de Vandenberg Space Force Base

Loading…

Próximas Passagens (próximas 24 horas)

TLE

AtualizadoSource: Space-Track

Época: Sep 12, 2026, 14:52 UTC

1 A0168U 26171W   26255.61998490 -.00035063  00000-0 -64794-3 0  9990
2 A0168  97.2829 288.1003 0001023  43.6427 316.4905 15.49099452  7685

Acompanhe STARLINK-38151 em tempo real com AllMySat

Download on the App Store